Regional Weather Roundup
Issued by NWS Sioux Falls, SD

Home | Current Version | Previous Version | Text Only | Print | Product List | Glossary On
Versions: 1 2 3 4 5 6 7 8 9 10 11 12 13 14 15 16 17 18 19 20 21 22 23 24 25 26 27 28 29 30 31 32 33 34 35 36 37 38 39 40 41 42 43 44 45 46 47 48 49 50
000
ASUS43 KFSD 190102
RWRFSD

WEATHER ROUNDUP FOR SE SOUTH DAKOTA/SW MINNESOTA/NW IOWA
NATIONAL WEATHER SERVICE SIOUX FALLS SD
800 PM CDT SAT APR 18 2015

NOTE: "FAIR" INDICATES FEW OR NO CLOUDS BELOW 12,000 FEET WITH NO
SIGNIFICANT WEATHER AND OR OBSTRUCTIONS TO VISIBILITY.


SDZ038>040-050-052>070-190200-
SOUTHEAST SOUTH DAKOTA

CITY           SKY/WX    TMP DP  RH WIND       PRES   REMARKS
BROOKINGS      CLOUDY    57  55  94 SE5       29.84F
CHAMBERLAIN    NOT AVBL
HURON          CLOUDY    55  54  96 E5        29.82F FOG
MADISON        CLOUDY    55  55 100 SE8       29.83F
MITCHELL       CLOUDY    58  56  93 NE6       29.82F FOG
SIOUX FALLS    CLOUDY    57  54  89 E8        29.80F
WINNER         CLOUDY    58  53  84 N9        29.83R
YANKTON        CLOUDY    59  55  88 E6        29.78F
$$

MNZ071-072-080-081-089-090-097-098-190200-
SOUTHWEST MINNESOTA

CITY           SKY/WX    TMP DP  RH WIND       PRES   REMARKS
FAIRMONT       CLOUDY    57  52  82 E8        29.85F
JACKSON        CLOUDY    55  54  94 E12       29.84F
LUVERNE        DRIZZLE   57  54  88 E6        29.82F
MARSHALL       CLOUDY    55  50  82 E17       29.85F
MONTEVIDEO     LGT RAIN  57  55  94 SW3       29.88F
PIPESTONE      RAIN      55  54  94 SE7       29.82F
REDWOOD FALLS  LGT RAIN  58  56  93 CALM      29.86F
TRACY          DRIZZLE   57  56  96 E8        29.85F
WORTHINGTON    CLOUDY    55  52  88 E6        29.83F
$$

IAZ001>003-012>014-020>022-031-032-NEZ013-014-SDZ071-190200-
NORTHWEST IOWA

CITY           SKY/WX    TMP DP  RH WIND       PRES   REMARKS
DENISON        CLOUDY    57  57 100 E8        29.79F
ESTHERVILLE    CLOUDY    55  54  96 E9        29.83F FOG
SIOUX CITY     CLOUDY    61  56  83 SE9       29.80F
SPENCER        CLOUDY    58  56  93 E6        29.82F
$$

ABBREVIATIONS USED IN REMARKS
   TC - TEMPERATURE IN CELSIUS
  WCI - WIND CHILL INDEX
   HX - HEAT INDEX
  VSB - VISIBILITY



USA.gov is the U.S. government's official web portal to all federal, state and local government web resources and services.